Orbital Elements at Epoch 2459200.5 (2020-Dec-17.0) TDB
Reference: JPL 20 (heliocentric ecliptic J2000)
Element | Value | Uncertainty (1-sigma) | Units |
e | .1272057891882152 | 5.8077e-08 | |
a | 2.404913748462353 | 1.421e-08 | au |
q | 2.09899479715961 | 1.4304e-07 | au |
i | 6.748276137741914 | 6.0565e-06 | deg |
node | 8.243610195268614 | 3.1286e-05 | deg |
peri | 343.4832797079816 | 3.7347e-05 | deg |
M | 282.1504294705226 | 2.5368e-05 | deg |
tp | 2459495.078743143735 (2021-Oct-07.57874314) | 9.7677e-05 | TDB |
period | 1362.221356013643 3.73 | 1.2074e-05 3.306e-08 | d yr |
n | .2642742300366597 | 2.3423e-09 | deg/d |
Q | 2.710832699765095 | 1.6018e-08 | au |
|
| | Orbit Determination Parameters
Additional Information
|